Vorticity
3 8 12 6 3 9 2 6 2 7 7 9 5 5 3 11 13 9 7 14 11 16 7 9 4 7 6 10 8 7 9 9 7 7 7 8 9 7 6 8 12 13 9
2 6 10 3 5 -1 13 7 6 6 10 6 6 7 12 11 12 8 14 11 10 11 5 7 6 6 10 7 7 9 7 7 7 7 8 9 8 5 7 12 11 8 5
5 3 12 4 8 13 10 3 4 10 8 9 8 11 10 10 7 13 10 8 9 6 8 6 6 10 8 7 8 7 8 7 7 6 8 9 8 4 10 14 10 6 5
4 3 7 8 12 11 5 5 7 9 8 10 9 8 8 8 8 12 10 6 8 7 9 5 10 8 6 7 7 7 6 5 6 7 7 10 9 3 9 14 8 6 5
11 4 6 8 10 6 6 7 9 8 10 10 8 7 8 9 8 8 7 7 6 12 5 6 9 6 6 7 6 6 6 5 5 7 7 11 6 5 9 12 7 5 4
15 9 7 7 6 5 6 8 8 13 9 7 8 7 8 6 8 7 6 6 4 12 5 7 8 5 6 4 3 3 4 6 6 6 6 10 4 5 9 13 9 6 4
14 9 9 5 5 5 6 10 13 10 8 7 7 7 6 6 7 7 5 5 5 11 5 7 9 4 4 3 3 3 3 6 6 6 7 12 2 6 14 13 8 7 4
1 14 7 6 4 6 8 13 11 10 6 7 8 7 8 6 7 8 6 6 7 10 5 6 8 5 3 3 3 2 3 7 6 7 8 10 4 7 14 12 8 8 4
2 22 6 6 6 5 11 13 11 7 6 7 8 7 9 8 8 9 8 7 9 8 5 6 9 6 4 4 3 3 4 7 6 8 9 7 1 3 13 11 5 6 5
14 22 7 4 4 10 10 14 10 5 6 6 6 7 7 8 7 8 8 7 8 9 6 6 9 8 5 4 5 4 5 7 6 9 9 6 2 5 14 11 7 5 2
19 12 8 3 6 10 15 13 6 6 6 6 5 6 7 6 7 8 8 7 9 9 6 5 8 8 8 7 6 6 7 7 7 10 9 7 6 3 11 12 7 7 1
18 8 8 1 9 10 15 8 6 5 7 5 5 7 7 6 6 8 11 9 11 10 7 6 7 8 7 7 8 8 7 6 8 9 8 7 4 3 10 11 7 5 0
18 7 6 2 9 14 9 8 6 5 4 4 6 6 6 6 5 8 11 10 12 9 7 7 5 7 8 7 8 8 7 7 8 9 8 7 4 5 10 12 6 9 -0
17 7 4 6 9 12 7 8 6 5 4 4 6 6 6 5 5 7 11 12 10 9 6 7 5 7 7 7 8 7 8 8 9 9 9 8 7 6 8 12 8 9 -1
12 5 2 10 10 9 7 8 6 6 4 3 5 6 7 7 6 8 10 10 10 7 7 6 6 7 7 8 8 8 8 9 9 9 9 8 7 7 6 13 9 7 1
7 4 6 8 11 8 7 8 6 5 3 3 4 6 6 7 7 8 8 10 8 6 9 5 7 7 7 8 9 9 8 8 9 9 8 8 6 7 6 12 11 7 5
5 3 8 9 9 8 8 8 6 5 4 4 4 5 5 7 7 10 8 10 8 7 8 5 7 7 7 8 8 9 9 8 9 8 8 8 6 5 10 7 14 9 8
4 5 9 9 8 8 9 8 6 6 5 6 5 6 5 6 9 9 7 10 10 10 7 7 7 8 8 7 7 8 9 9 10 8 7 8 7 4 9 8 12 12 9
3 10 7 8 7 9 7 9 7 6 6 6 6 7 5 6 9 11 7 8 8 6 6 5 6 6 5 6 7 8 9 9 9 9 7 7 6 8 8 7 10 15 9
5 8 6 7 8 9 7 7 5 4 5 6 6 7 6 6 8 11 7 6 5 5 6 7 6 5 4 5 6 7 8 9 9 8 8 7 7 9 5 7 12 15 12
7 5 5 7 9 8 7 7 5 5 5 6 6 6 6 5 8 11 9 7 6 4 4 4 4 4 5 5 6 7 8 9 9 8 8 7 7 7 5 5 12 11 16
2 5 6 6 9 7 6 6 6 6 6 5 6 5 6 6 8 11 10 7 5 5 5 6 5 6 6 8 6 8 8 8 9 9 7 8 6 6 7 5 10 12 17
5 7 5 3 8 7 7 5 6 6 6 6 5 5 6 5 6 10 9 6 7 8 5 5 12 7 6 8 11 7 7 8 9 8 8 6 6 8 5 5 6 12 13
-2 -2 4 2 8 8 7 6 3 5 4 6 5 6 6 5 8 9 10 7 5 5 9 4 8 7 7 10 11 9 8 8 8 8 8 6 8 6 4 5 7 11 13
9 6 5 4 8 8 8 5 4 9 6 5 5 6 5 6 7 9 11 8 5 5 8 7 7 7 8 7 8 7 8 7 8 6 8 6 7 7 7 7 5 7 11
5 2 1 5 3 4 3 7 15 8 7 5 4 6 6 5 6 7 10 10 5 7 8 6 7 7 5 6 7 7 7 6 6 7 6 7 6 7 6 6 7 7 8
Height
5862 5861 5860 5860 5860 5859 5859 5855 5853 5852 5850 5848 5847 5845 5842 5839 5836 5833 5831 5828 5825 5823 5820 5817 5813 5809 5807 5803 5800 5798 5795 5792 5789 5785 5781 5777 5772 5767 5763 5757 5752 5747 5742
5859 5859 5858 5858 5857 5856 5856 5854 5852 5850 5849 5847 5845 5843 5840 5837 5834 5832 5829 5827 5824 5822 5820 5816 5812 5809 5806 5803 5800 5797 5794 5791 5787 5783 5778 5774 5769 5764 5759 5753 5748 5743 5737
5857 5856 5855 5855 5854 5853 5852 5851 5850 5849 5847 5845 5843 5841 5839 5836 5832 5830 5828 5826 5823 5821 5818 5816 5812 5808 5806 5803 5800 5797 5794 5790 5785 5781 5776 5772 5767 5762 5756 5750 5744 5740 5734
5854 5853 5852 5852 5853 5851 5850 5849 5848 5847 5846 5844 5841 5839 5836 5833 5830 5827 5826 5824 5822 5819 5817 5815 5812 5808 5806 5803 5799 5796 5792 5788 5784 5780 5775 5770 5764 5759 5753 5747 5742 5735 5729
5850 5850 5849 5848 5849 5849 5848 5846 5846 5845 5844 5841 5839 5837 5834 5832 5828 5825 5823 5823 5821 5818 5815 5814 5811 5808 5806 5802 5799 5795 5791 5787 5782 5778 5772 5766 5761 5756 5749 5743 5738 5731 5725
5846 5847 5846 5844 5845 5845 5845 5843 5842 5843 5841 5839 5836 5834 5832 5830 5827 5824 5821 5820 5819 5816 5814 5812 5810 5807 5804 5801 5798 5794 5790 5785 5780 5775 5769 5764 5758 5752 5746 5740 5734 5727 5720
5841 5843 5843 5841 5841 5841 5841 5840 5839 5839 5838 5836 5833 5831 5829 5827 5825 5822 5819 5817 5815 5814 5812 5810 5808 5806 5802 5799 5796 5793 5788 5783 5778 5773 5767 5762 5756 5750 5743 5737 5731 5723 5716
5837 5839 5840 5838 5837 5838 5838 5837 5836 5837 5836 5834 5832 5830 5827 5825 5823 5821 5818 5816 5814 5812 5811 5808 5805 5803 5801 5798 5795 5791 5786 5781 5776 5770 5765 5759 5753 5747 5740 5733 5727 5719 5711
5833 5834 5835 5834 5833 5834 5834 5834 5834 5834 5834 5832 5830 5829 5827 5825 5822 5820 5818 5816 5814 5811 5809 5807 5804 5802 5799 5796 5793 5789 5785 5779 5773 5768 5763 5757 5751 5744 5737 5730 5724 5716 5708
5827 5828 5830 5829 5830 5830 5831 5831 5831 5831 5831 5830 5828 5826 5825 5823 5820 5818 5815 5812 5809 5808 5808 5806 5803 5800 5797 5794 5791 5786 5782 5777 5771 5766 5760 5754 5749 5742 5734 5727 5720 5713 5705
5822 5824 5826 5826 5826 5826 5827 5828 5828 5829 5828 5827 5825 5824 5823 5820 5818 5815 5813 5810 5807 5806 5805 5803 5800 5798 5794 5791 5787 5783 5779 5775 5769 5764 5758 5752 5746 5739 5731 5724 5717 5710 5703
5816 5819 5822 5821 5821 5822 5824 5825 5825 5826 5826 5824 5823 5821 5820 5819 5817 5813 5810 5809 5806 5804 5802 5801 5798 5796 5792 5788 5785 5781 5777 5772 5767 5761 5755 5749 5743 5737 5729 5722 5715 5708 5701
5812 5814 5817 5817 5816 5818 5820 5822 5822 5823 5824 5822 5820 5820 5818 5815 5813 5810 5807 5806 5804 5802 5801 5798 5795 5792 5789 5787 5783 5779 5774 5770 5764 5759 5753 5747 5741 5734 5727 5719 5712 5706 5699
5806 5808 5812 5813 5813 5814 5816 5819 5819 5820 5821 5819 5818 5818 5816 5812 5808 5807 5803 5801 5800 5799 5798 5795 5792 5789 5787 5784 5780 5776 5772 5767 5762 5756 5751 5745 5739 5732 5725 5717 5710 5704 5697
5801 5804 5805 5808 5809 5811 5813 5815 5815 5816 5817 5816 5816 5815 5813 5809 5807 5805 5801 5799 5797 5796 5794 5793 5790 5787 5785 5781 5778 5773 5769 5764 5759 5754 5748 5742 5736 5730 5723 5715 5708 5702 5695
5796 5799 5800 5802 5804 5807 5808 5810 5812 5814 5813 5813 5812 5811 5809 5806 5803 5802 5798 5796 5793 5793 5792 5790 5788 5785 5782 5778 5774 5771 5766 5761 5757 5751 5746 5740 5735 5728 5721 5714 5707 5701 5694
5789 5793 5795 5797 5799 5801 5804 5806 5808 5808 5809 5809 5808 5807 5805 5802 5800 5798 5796 5793 5791 5790 5789 5787 5786 5783 5780 5776 5772 5768 5763 5758 5753 5749 5744 5738 5732 5726 5719 5713 5706 5699 5693
5784 5787 5790 5792 5794 5797 5799 5801 5803 5804 5805 5804 5804 5802 5801 5799 5798 5795 5793 5791 5788 5786 5785 5784 5783 5780 5777 5773 5769 5765 5761 5755 5751 5746 5741 5736 5730 5724 5718 5711 5704 5697 5691
5778 5781 5784 5787 5789 5792 5794 5796 5798 5799 5800 5800 5800 5799 5797 5795 5794 5792 5789 5788 5786 5784 5782 5781 5779 5776 5773 5770 5766 5762 5758 5753 5748 5743 5738 5733 5728 5722 5716 5709 5702 5695 5690
5771 5775 5778 5781 5784 5787 5789 5791 5792 5794 5795 5796 5795 5795 5793 5791 5789 5788 5786 5784 5783 5781 5779 5777 5774 5772 5769 5766 5763 5759 5754 5750 5745 5740 5735 5730 5725 5720 5714 5708 5701 5694 5688
5764 5768 5772 5776 5780 5782 5784 5786 5787 5789 5789 5790 5790 5790 5789 5786 5785 5783 5781 5779 5778 5776 5774 5772 5770 5768 5766 5763 5759 5755 5751 5748 5742 5737 5732 5728 5723 5718 5712 5706 5699 5692 5686
5757 5762 5766 5770 5774 5777 5779 5780 5782 5783 5784 5784 5785 5784 5783 5781 5779 5778 5777 5775 5773 5771 5769 5767 5765 5763 5761 5758 5755 5752 5748 5743 5739 5734 5729 5725 5719 5714 5710 5704 5697 5690 5684
5751 5756 5759 5763 5768 5770 5772 5774 5777 5778 5778 5778 5779 5778 5777 5776 5774 5773 5771 5770 5768 5767 5765 5763 5760 5757 5755 5753 5750 5747 5743 5739 5735 5730 5725 5721 5716 5711 5706 5701 5695 5688 5682
5744 5748 5752 5756 5760 5763 5765 5768 5769 5771 5771 5771 5771 5771 5770 5770 5768 5766 5765 5764 5762 5762 5760 5757 5755 5752 5749 5747 5745 5742 5739 5735 5731 5726 5722 5717 5713 5708 5702 5697 5692 5686 5680
5736 5741 5745 5748 5753 5755 5758 5760 5762 5763 5764 5764 5765 5764 5763 5763 5762 5760 5759 5758 5756 5755 5754 5752 5749 5746 5743 5741 5739 5736 5733 5730 5726 5721 5718 5712 5708 5704 5699 5693 5688 5682 5676
5728 5732 5736 5740 5743 5746 5750 5753 5754 5755 5757 5757 5757 5756 5756 5755 5755 5753 5752 5751 5749 5749 5748 5746 5743 5740 5737 5735 5733 5730 5727 5724 5720 5717 5712 5708 5703 5699 5695 5689 5684 5679 5674